UTA296 USRR-UUWW

Flight info

Callsign UTA296
Flight time N/A
Altitude 36000
Route ANIKI1C ANIKI G484 HMN L870 UNISO N869 REKPA N181 ROMTA ROMTA3A
Aircraft B738/M-SDE2E3FGHIRWXY/LB1

Departure

Time 2026-05-01 15:07
Airport Surgut International Airport (USRR)

Arrival

Time N/A
Airport Vnukovo International Airport (UUWW)
Time Latitude Longitude Altitude Speed Heading
2026-05-01 14:38 61.34128 73.40014 207 ft 0 kts 360°
2026-05-01 14:59 61.34164 73.39999 209 ft 8 kts 337°
2026-05-01 14:59 61.34179 73.39887 207 ft 8 kts 270°
2026-05-01 14:59 61.34178 73.39766 213 ft 8 kts 269°
2026-05-01 15:00 61.34177 73.39537 215 ft 8 kts 270°
2026-05-01 15:00 61.34177 73.39428 210 ft 7 kts 270°
2026-05-01 15:00 61.34177 73.39357 206 ft 7 kts 269°
2026-05-01 15:01 61.34176 73.39254 210 ft 7 kts 269°
2026-05-01 15:01 61.34175 73.39153 209 ft 7 kts 270°
2026-05-01 15:01 61.34175 73.39054 206 ft 7 kts 270°
2026-05-01 15:01 61.34175 73.38958 206 ft 7 kts 270°
2026-05-01 15:02 61.34175 73.38863 213 ft 6 kts 269°
2026-05-01 15:02 61.34174 73.38800 213 ft 6 kts 269°
2026-05-01 15:02 61.34173 73.38678 214 ft 6 kts 269°
2026-05-01 15:02 61.34172 73.38589 211 ft 6 kts 269°
2026-05-01 15:03 61.34172 73.38501 211 ft 6 kts 270°
2026-05-01 15:03 61.34172 73.38415 212 ft 6 kts 270°
2026-05-01 15:03 61.34172 73.38330 206 ft 6 kts 270°
2026-05-01 15:03 61.34172 73.38246 207 ft 6 kts 270°
2026-05-01 15:04 61.34197 73.38186 208 ft 6 kts 324°
2026-05-01 15:04 61.34230 73.38138 217 ft 6 kts 324°
2026-05-01 15:04 61.34263 73.38090 210 ft 6 kts 325°
2026-05-01 15:04 61.34321 73.38039 203 ft 15 kts 349°
2026-05-01 15:05 61.34382 73.37923 197 ft 15 kts 274°
2026-05-01 15:05 61.34352 73.37729 204 ft 14 kts 255°
2026-05-01 15:05 61.34371 73.37682 203 ft 3 kts 43°
2026-05-01 15:05 61.34379 73.37725 196 ft 3 kts 78°
2026-05-01 15:06 61.34381 73.37836 194 ft 27 kts 89°
2026-05-01 15:06 61.34383 73.38521 189 ft 89 kts 90°
2026-05-01 15:06 61.34388 73.40227 209 ft 142 kts 90°
2026-05-01 15:06 61.34406 73.42326 279 ft 166 kts 89°
2026-05-01 15:07 61.34406 73.44710 595 ft 177 kts 88°
2026-05-01 15:07 61.34405 73.47219 1070 ft 174 kts 89°
2026-05-01 15:07 61.34392 73.49615 1821 ft 163 kts 89°
2026-05-01 15:07 61.34383 73.52035 2092 ft 184 kts 90°
2026-05-01 15:08 61.34185 73.54850 2272 ft 205 kts 114°
2026-05-01 15:08 61.33247 73.57204 2539 ft 221 kts 138°
2026-05-01 15:08 61.31830 73.58557 2954 ft 233 kts 166°
2026-05-01 15:08 61.30187 73.58329 3329 ft 252 kts 194°
2026-05-01 15:09 61.28684 73.56188 3723 ft 272 kts 219°
2026-05-01 15:09 61.27311 73.53454 4420 ft 271 kts 219°
2026-05-01 15:09 61.25960 73.50732 5178 ft 270 kts 219°
2026-05-01 15:09 61.24637 73.48064 5891 ft 269 kts 219°
2026-05-01 15:10 61.23281 73.45343 6656 ft 267 kts 219°
2026-05-01 15:10 61.20635 73.40043 8137 ft 266 kts 220°
2026-05-01 15:10 61.19622 73.36768 8856 ft 278 kts 244°
2026-05-01 15:11 61.19066 73.32929 9584 ft 279 kts 249°
2026-05-01 15:11 61.18080 73.24901 10442 ft 305 kts 250°
2026-05-01 15:11 61.17542 73.20501 10616 ft 325 kts 250°
2026-05-01 15:12 61.16967 73.15821 10774 ft 344 kts 250°
2026-05-01 15:12 61.15743 73.05920 11765 ft 357 kts 250°
2026-05-01 15:12 61.15131 73.00995 12481 ft 358 kts 251°
2026-05-01 15:13 61.13230 72.85948 14530 ft 362 kts 251°
2026-05-01 15:14 61.11937 72.75863 15852 ft 365 kts 251°
2026-05-01 15:14 61.11281 72.70774 16467 ft 367 kts 251°
2026-05-01 15:14 61.09952 72.60524 17712 ft 370 kts 251°
2026-05-01 15:15 61.08608 72.50220 18831 ft 375 kts 251°
2026-05-01 15:15 61.07233 72.39750 19830 ft 380 kts 251°
2026-05-01 15:16 61.05839 72.29211 20790 ft 385 kts 251°
2026-05-01 15:16 61.04409 72.18465 21666 ft 391 kts 251°
2026-05-01 15:17 61.02950 72.07570 22507 ft 396 kts 251°
2026-05-01 15:18 61.00714 71.91014 23628 ft 404 kts 250°
2026-05-01 15:18 61.00100 71.85325 23922 ft 413 kts 259°
2026-05-01 15:19 61.00444 71.67230 25040 ft 425 kts 267°
2026-05-01 15:19 61.00712 71.55042 25736 ft 427 kts 266°
2026-05-01 15:19 61.00829 71.48915 26058 ft 429 kts 266°
2026-05-01 15:20 61.01046 71.36576 26646 ft 432 kts 266°
2026-05-01 15:20 61.01151 71.30365 26930 ft 434 kts 266°
2026-05-01 15:20 61.01253 71.24171 27230 ft 435 kts 266°
2026-05-01 15:21 61.01353 71.17939 27592 ft 434 kts 266°
2026-05-01 15:21 61.01451 71.11748 28026 ft 432 kts 265°
2026-05-01 15:21 61.01547 71.05574 28479 ft 429 kts 265°
2026-05-01 15:21 61.01638 70.99432 28891 ft 427 kts 265°
2026-05-01 15:22 61.01814 70.87229 29601 ft 425 kts 265°
2026-05-01 15:22 61.01903 70.81148 29997 ft 423 kts 265°
2026-05-01 15:22 61.01991 70.75112 30389 ft 421 kts 265°
2026-05-01 15:23 61.02077 70.69083 30742 ft 419 kts 265°
2026-05-01 15:23 61.02159 70.63098 31104 ft 418 kts 265°
2026-05-01 15:23 61.02237 70.57142 31432 ft 416 kts 264°
2026-05-01 15:23 61.02312 70.51181 31753 ft 415 kts 264°
2026-05-01 15:24 61.02385 70.45233 32065 ft 414 kts 264°
2026-05-01 15:24 61.02455 70.39289 32332 ft 414 kts 264°
2026-05-01 15:24 61.02522 70.33345 32613 ft 414 kts 264°
2026-05-01 15:24 61.02586 70.27433 32902 ft 413 kts 264°
2026-05-01 15:25 61.02648 70.21528 33253 ft 410 kts 264°
2026-05-01 15:25 61.02709 70.15674 33619 ft 407 kts 263°
2026-05-01 15:25 61.02766 70.09834 33880 ft 407 kts 263°
2026-05-01 15:25 61.02816 70.03982 33865 ft 410 kts 263°
2026-05-01 15:26 61.02912 69.92201 33875 ft 409 kts 263°
2026-05-01 15:26 61.02999 69.80535 33878 ft 406 kts 263°
2026-05-01 15:27 61.03074 69.68918 33877 ft 404 kts 263°
2026-05-01 15:28 61.03168 69.51604 33887 ft 402 kts 262°
2026-05-01 15:28 61.03218 69.40058 33893 ft 403 kts 262°
2026-05-01 15:29 61.03277 69.22665 33894 ft 406 kts 262°
2026-05-01 15:30 61.04121 68.99142 33888 ft 418 kts 270°
2026-05-01 15:31 61.06562 68.63442 33888 ft 420 kts 269°
2026-05-01 15:32 61.08080 68.39589 33883 ft 419 kts 269°
2026-05-01 15:34 61.10257 68.03791 33883 ft 417 kts 268°